Back to catalog

STARLINK-34946

AliveCommunicationsVLEO
NORAD 65367·PAYLOAD·🇺🇸 United States

Launched Aug 28, 2025 from Cape Canaveral Space Force Station

Loading…

Next Passes (next 24 hours)

TLE

FreshSource: CelesTrak SupGP

Epoch: Sep 14, 2026, 15:03 UTC

1 65367C 25190S   26257.62756944 -.00032179  00000+0 -95110-3 0  2578
2 65367  53.1595   7.2379 0001208  68.8525 143.6317 15.34394829    14

Track STARLINK-34946 in real time with AllMySat

Download on the App Store